Temperature
17 17 17 16 16 16 16 16 16 16 16 16 16 16 15 15 15 15 15 15 15 15 15 16 16 16 16 16 16 16 16 16 16 16 16 16 16 16 16 16 16 16 16
17 17 16 16 16 16 16 16 16 16 16 16 16 15 15 15 15 15 15 15 15 15 15 15 15 15 15 15 15 15 15 15 15 15 16 16 16 16 16 16 16 16 16
17 16 16 16 16 16 16 16 16 16 16 15 15 15 15 15 15 15 15 15 15 15 15 15 15 15 15 15 15 15 15 15 15 15 15 15 15 15 15 15 15 15 15
16 16 16 16 16 16 16 16 16 16 16 15 15 15 15 15 15 15 15 15 15 15 15 15 15 15 15 15 15 15 15 15 15 15 15 15 15 15 15 15 15 15 15
16 16 16 16 16 16 16 16 16 16 15 15 15 15 15 15 15 14 14 14 14 14 14 14 14 14 14 14 14 14 14 14 14 14 14 15 15 15 15 15 15 14 14
16 16 16 16 16 16 16 16 15 15 15 15 15 15 15 15 15 14 14 14 14 14 14 14 14 14 14 14 14 14 14 14 14 14 14 14 14 14 14 14 14 14 14
16 16 16 16 16 16 15 15 15 15 15 15 15 15 15 14 14 14 14 14 14 14 14 14 14 14 14 14 14 14 14 14 14 13 13 13 14 13 13 13 14 14 14
16 16 15 15 15 15 15 15 15 15 15 15 15 15 15 14 14 14 14 14 14 14 13 13 13 13 14 14 14 13 14 13 13 13 13 13 13 13 13 13 13 13 13
16 16 15 15 15 15 15 15 15 15 15 15 15 15 15 15 14 14 14 14 14 13 13 13 13 13 13 13 13 13 13 13 13 13 13 13 13 13 13 13 13 13 13
16 15 15 15 15 15 15 15 15 15 15 15 15 15 15 15 15 14 14 13 13 13 13 13 13 13 13 13 13 13 13 13 13 13 12 12 12 12 12 12 12 12 12
15 15 15 15 15 15 15 15 15 15 15 15 15 15 15 15 15 15 14 13 13 13 13 13 13 13 12 12 13 13 13 13 13 13 12 12 12 12 12 12 12 12 12
15 15 15 15 15 15 15 15 15 15 15 15 15 15 15 15 15 15 14 14 13 13 13 13 12 12 12 12 12 12 12 12 12 12 12 12 12 12 12 12 11 11 11
15 15 15 15 15 15 15 15 15 15 15 15 15 15 15 14 14 14 14 14 13 13 13 12 12 12 12 12 12 12 12 12 12 12 12 12 12 12 11 11 11 11 11
16 16 15 15 15 15 15 15 15 15 15 15 15 14 14 14 14 14 14 14 13 13 12 12 12 12 12 12 12 12 12 12 12 12 12 12 11 11 11 11 11 11 11
16 16 15 15 15 15 15 15 15 15 15 15 14 14 14 14 14 14 14 14 14 13 12 12 12 11 11 11 11 11 11 11 11 11 11 11 11 11 11 11 11 11 11
16 15 15 15 15 15 15 15 15 15 14 14 14 14 14 14 14 14 14 14 14 13 12 12 12 11 11 11 11 11 11 11 11 11 11 11 11 11 11 11 10 10 10
16 15 15 15 15 15 15 15 14 14 14 14 14 14 14 14 14 13 13 13 13 13 13 12 11 11 11 11 11 11 11 10 11 11 11 11 11 10 10 10 10 10 10
16 15 15 15 15 15 15 14 14 14 14 14 14 14 13 13 13 13 13 13 13 12 12 12 11 11 11 11 10 10 10 10 10 10 10 10 10 10 10 10 10 10 9
16 15 15 15 15 15 14 14 14 14 14 14 13 13 13 13 13 13 13 13 12 12 12 12 11 11 10 10 10 10 10 10 10 10 10 10 10 10 10 9 9 9 9
15 15 15 15 15 14 14 14 14 14 14 13 13 13 13 13 13 13 12 12 12 12 11 11 11 11 10 10 10 10 10 10 9 9 9 9 9 9 9 9 9 9 8
15 15 15 15 14 14 14 14 14 14 13 13 13 13 13 13 13 12 12 12 12 12 11 11 11 10 10 10 10 9 9 9 9 9 9 9 8 8 8 8 8 8 8
15 15 15 15 14 14 14 14 14 14 13 13 13 13 13 13 13 12 12 12 12 11 11 11 10 10 10 10 10 9 9 9 9 9 8 8 8 8 8 8 8 7 7
15 15 15 14 14 14 14 14 13 13 13 13 13 12 12 12 12 12 12 12 11 11 11 11 11 10 10 10 10 9 9 9 8 8 8 8 8 8 7 7 7 7 7
14 14 14 14 14 14 14 13 13 13 13 13 12 12 12 12 12 12 12 11 11 11 11 10 10 10 10 10 9 9 9 8 8 8 7 7 7 7 7 7 7 6 6
14 14 14 14 14 13 13 13 13 13 13 12 12 12 12 12 12 12 11 11 11 11 10 10 10 10 9 9 9 9 8 8 8 7 7 7 7 7 7 7 6 6 6
14 14 13 13 13 13 13 13 13 13 12 12 12 12 12 12 12 11 11 11 11 11 10 10 10 9 9 9 9 8 8 7 7 7 7 6 6 6 6 6 6 6 5
Wind_Speed
2 3 4 4 4 4 3 3 5 7 7 9 11 11 9 11 12 12 12 14 15 15 14 14 14 14 13 13 12 12 12 12 11 11 11 11 10 9 8 8 8 8 8
4 3 4 3 3 4 5 5 7 6 6 7 8 9 9 10 11 11 12 13 15 15 14 14 14 14 13 13 13 12 12 12 12 11 11 11 10 9 9 9 8 8 8
6 4 3 2 3 6 7 7 8 6 6 6 6 7 9 9 10 10 11 11 12 14 15 14 14 14 14 14 14 14 13 12 12 11 11 11 11 10 9 9 9 8 8
8 5 3 3 4 6 5 4 4 5 5 5 5 6 6 7 9 10 11 11 11 12 14 16 16 16 16 16 15 15 14 14 13 13 12 12 11 10 10 9 9 9 9
8 6 3 3 6 5 4 4 5 4 5 5 5 5 5 5 6 9 10 11 12 13 13 15 16 17 17 17 16 15 15 14 14 14 14 14 12 11 11 10 10 9 9
8 6 4 5 6 4 4 4 5 5 4 3 5 6 5 4 5 6 7 9 11 12 12 12 13 15 17 18 17 16 15 15 15 15 15 15 15 14 13 12 11 10 10
7 6 4 4 4 4 4 4 4 4 3 3 4 4 4 4 5 4 5 6 8 10 12 12 11 11 13 16 16 16 15 15 15 14 15 15 15 15 15 14 13 11 10
7 5 4 3 4 4 4 4 4 2 1 1 2 2 2 2 3 4 4 5 5 8 9 11 12 13 13 13 15 17 16 15 15 14 14 15 15 15 15 15 15 14 13
6 5 4 4 3 4 3 2 3 3 1 1 1 2 2 2 1 2 4 5 5 4 5 9 12 13 14 14 14 16 16 16 15 15 15 15 15 15 16 16 17 16 15
4 4 4 4 3 3 3 2 3 2 2 1 2 3 3 3 2 2 2 3 5 5 5 7 10 12 14 13 14 15 16 16 15 15 15 16 16 16 17 17 17 17 16
3 4 3 3 4 3 3 4 4 4 2 2 2 2 3 3 2 3 2 2 3 4 4 6 8 10 12 12 13 14 15 15 15 15 15 15 15 16 16 16 16 16 15
2 3 3 3 4 3 4 3 3 3 3 3 3 3 2 2 2 2 2 2 3 2 4 5 6 8 9 11 12 12 13 14 14 15 15 15 15 15 15 15 16 15 15
2 3 3 3 4 4 4 4 3 3 3 3 3 3 3 3 2 3 3 2 2 2 3 3 5 7 8 9 10 10 11 12 12 13 14 14 15 15 15 15 15 15 15
3 4 4 4 5 4 4 4 2 2 3 3 4 4 3 3 3 2 2 2 2 1 2 2 2 6 7 8 8 8 9 10 10 11 12 12 12 13 13 14 14 14 14
3 5 5 4 4 4 4 3 3 3 3 3 3 4 3 2 3 3 3 2 3 2 1 1 2 3 6 7 7 7 7 7 8 9 9 10 10 11 11 12 12 13 13
4 4 4 4 4 4 4 3 3 3 4 3 3 4 3 2 3 3 2 2 3 3 2 1 1 2 5 5 6 6 6 6 6 6 7 8 8 9 9 10 10 11 11
5 5 4 4 4 4 3 3 3 3 3 3 3 4 3 3 2 2 2 3 3 3 4 1 2 2 4 4 4 4 4 5 4 4 5 6 6 7 7 8 8 9 9
4 4 4 4 4 3 3 4 3 3 3 3 3 3 3 3 3 2 2 2 2 3 4 2 1 2 2 2 2 1 2 2 2 2 2 2 3 4 4 5 6 6 7
4 4 4 4 4 4 3 3 3 3 2 2 3 3 3 3 2 1 2 2 2 3 3 2 1 1 1 1 2 2 2 1 1 1 2 1 1 2 2 3 4 5 6
5 5 4 4 4 3 3 2 3 3 3 3 3 3 3 3 2 1 2 2 2 2 2 2 1 1 1 1 2 1 1 2 1 1 1 1 1 1 2 3 3 5 5
4 4 4 4 3 3 2 3 2 3 3 4 3 4 4 6 6 4 3 2 2 1 2 2 1 1 0 1 1 1 0 1 2 1 1 1 1 1 2 3 3 4 5
3 4 5 5 4 3 5 6 3 2 2 3 4 4 4 4 5 6 6 5 4 2 2 1 1 1 1 0 0 1 1 1 2 2 1 2 1 1 2 2 2 4 5
3 4 4 5 4 4 6 4 3 1 1 2 3 3 2 3 4 2 3 3 3 2 2 2 1 1 0 0 0 1 1 1 2 2 1 3 2 2 2 3 5 5 5
4 4 4 5 5 4 5 4 3 1 1 2 2 2 3 3 2 2 2 2 1 1 1 2 2 1 1 1 0 1 1 1 1 2 2 2 3 3 3 4 6 6 6
4 4 3 5 5 4 5 4 3 1 1 1 2 2 3 3 3 3 2 2 1 0 2 3 3 1 1 2 3 2 2 1 2 3 1 1 3 3 3 3 5 6 8
5 5 5 5 6 5 5 5 3 1 2 2 2 2 3 3 3 3 2 2 2 1 1 0 1 1 1 1 1 1 1 1 1 2 2 1 3 3 3 3 2 5 7
Wind_Direction
61 76 85 64 61 80 84 63 66 64 58 60 63 67 71 76 81 79 73 70 67 65 65 65 64 62 62 65 65 66 68 67 64 62 59 56 55 57 59 56 55 56 61
68 67 78 75 63 73 79 81 83 77 68 66 61 61 62 70 80 87 83 73 69 65 65 65 64 61 61 62 63 65 66 66 65 62 57 53 53 57 57 54 53 56 61
67 64 71 74 71 70 73 77 80 82 84 76 66 66 60 58 69 78 89 83 75 67 65 64 64 61 60 60 61 61 63 62 61 59 57 54 54 59 57 51 48 53 57
71 58 52 66 77 74 75 82 81 79 77 73 69 64 62 54 58 69 75 80 78 74 68 66 62 60 58 59 60 60 60 60 58 56 54 54 52 55 53 49 48 53 54
66 66 49 51 68 70 72 78 81 86 88 86 89 80 66 54 51 65 69 72 75 76 73 67 64 61 58 56 55 56 57 58 59 57 55 52 52 52 50 48 52 54 54
59 64 62 50 58 66 64 71 76 76 86 91 92 90 86 77 58 56 64 69 70 73 73 70 68 63 57 54 53 53 55 57 58 57 55 54 53 51 50 52 53 54 56
51 62 62 53 60 65 69 83 84 83 88 91 87 83 72 77 78 70 60 71 69 69 69 69 69 69 63 55 52 52 53 56 58 56 55 54 53 50 47 47 50 54 57
52 61 70 70 78 73 61 67 79 75 80 103 118 125 103 50 43 74 72 70 69 69 67 67 68 71 70 65 57 54 52 53 55 55 54 53 51 49 48 46 52 56 58
63 55 61 75 84 93 87 78 83 83 55 356 45 93 118 124 107 53 71 74 66 63 60 66 65 69 73 69 62 56 55 54 53 53 54 54 52 49 49 49 53 56 57
83 64 69 77 81 81 83 66 69 65 61 15 8 30 70 110 122 116 50 71 77 68 58 61 61 65 73 75 69 63 59 55 54 53 54 53 51 50 50 51 52 53 53
104 89 73 80 86 86 85 71 62 50 50 51 40 31 41 45 61 109 114 91 70 69 71 66 67 64 69 75 73 66 61 57 55 53 52 51 49 49 50 49 50 50 51
104 101 90 78 83 83 81 79 78 67 53 49 44 54 66 63 54 76 105 116 105 84 79 73 75 71 69 72 70 71 67 61 57 55 53 51 49 46 46 47 46 45 45
123 119 101 88 82 79 83 78 75 76 74 65 54 54 55 57 63 81 98 109 108 116 90 70 78 82 78 81 75 73 72 65 60 57 53 51 49 46 43 43 43 41 40
134 127 107 93 87 84 85 78 73 63 70 74 71 70 65 50 52 77 102 107 105 90 88 96 76 84 85 89 81 77 78 71 65 60 55 52 50 46 43 42 40 38 37
135 121 120 114 103 94 92 95 89 75 63 58 66 74 75 60 50 51 70 91 116 109 76 102 81 106 102 98 87 79 86 83 73 65 57 52 49 46 43 42 40 38 36
131 128 125 126 121 113 104 98 100 103 96 74 65 68 62 58 54 48 47 43 71 117 107 90 99 117 104 99 96 91 86 97 83 71 58 49 46 45 44 42 40 37 34
141 141 138 132 130 128 125 116 112 101 109 106 94 93 79 66 66 51 41 52 59 89 110 93 83 94 98 94 91 101 96 105 90 83 64 50 42 39 40 40 37 34 29
142 143 139 129 127 124 124 123 124 117 116 121 112 103 100 83 70 54 53 61 68 89 112 122 103 83 94 115 109 90 85 91 87 101 96 68 44 35 34 33 32 28 23
146 139 132 126 125 122 115 124 126 121 110 103 103 100 95 92 93 69 69 68 68 83 96 116 116 89 79 83 68 34 42 44 28 106 137 142 38 24 18 15 24 18 12
146 141 138 131 129 127 124 122 122 117 113 99 93 92 88 88 84 91 80 70 77 85 94 106 108 77 82 71 80 18 347 329 323 338 9 215 287 322 347 352 354 353 353
131 128 130 127 120 115 100 93 118 130 133 125 111 101 91 87 79 77 82 70 73 83 105 111 113 75 50 47 326 253 290 285 299 342 330 265 218 246 273 306 318 332 341
125 123 124 123 120 114 98 78 69 78 121 130 128 130 131 115 104 95 93 88 87 100 117 118 140 174 228 214 299 356 327 345 313 316 330 294 226 239 239 243 286 305 312
141 134 132 124 119 117 118 102 76 58 80 110 125 133 130 127 135 148 127 108 77 70 122 143 165 220 194 235 32 325 306 295 262 282 3 300 298 288 286 258 270 278 292
157 149 145 138 129 136 140 137 140 170 138 117 125 132 131 123 109 108 115 112 123 163 171 146 157 190 139 49 154 228 248 306 307 330 21 294 311 303 308 277 265 266 285
153 153 154 144 139 145 149 148 154 180 156 133 101 88 107 112 95 90 124 139 120 146 115 124 129 114 71 40 45 48 18 12 315 306 324 305 306 311 291 269 271 268 279
156 157 158 156 154 152 155 153 166 183 163 145 125 103 95 120 113 105 142 157 166 211 149 48 19 336 22 19 10 114 184 267 294 301 319 348 318 338 314 292 299 296 288
Height
1550 1549 1550 1550 1550 1551 1551 1551 1551 1552 1552 1552 1552 1552 1552 1552 1551 1551 1551 1550 1550 1549 1549 1549 1549 1548 1548 1548 1547 1547 1547 1547 1547 1547 1546 1546 1545 1545 1546 1546 1547 1547 1548
1551 1551 1551 1551 1552 1552 1552 1552 1553 1553 1553 1553 1553 1553 1553 1553 1552 1552 1552 1552 1551 1551 1550 1550 1550 1550 1549 1549 1549 1548 1548 1548 1548 1547 1546 1545 1544 1544 1545 1546 1546 1547 1547
1551 1552 1552 1553 1553 1553 1554 1554 1554 1554 1555 1555 1555 1555 1555 1555 1554 1553 1553 1553 1553 1553 1552 1552 1551 1551 1550 1550 1550 1549 1549 1549 1548 1548 1547 1546 1544 1544 1545 1545 1546 1546 1546
1552 1552 1553 1554 1554 1555 1555 1555 1555 1556 1556 1556 1556 1557 1556 1556 1555 1555 1555 1555 1555 1554 1554 1553 1553 1552 1551 1551 1551 1550 1550 1549 1549 1548 1547 1546 1545 1545 1545 1545 1545 1545 1545
1553 1553 1554 1555 1555 1555 1556 1556 1557 1557 1557 1558 1558 1558 1558 1557 1557 1557 1557 1557 1557 1556 1555 1555 1554 1553 1552 1552 1551 1551 1551 1550 1549 1549 1548 1547 1546 1545 1545 1544 1544 1543 1543
1554 1554 1554 1555 1556 1556 1557 1557 1558 1558 1559 1559 1560 1560 1560 1560 1559 1559 1560 1559 1559 1558 1557 1556 1555 1554 1553 1552 1552 1551 1551 1551 1550 1550 1549 1548 1547 1545 1544 1543 1541 1541 1541
1554 1555 1555 1556 1556 1557 1557 1558 1559 1559 1560 1561 1561 1561 1562 1562 1562 1562 1562 1561 1561 1560 1559 1558 1557 1555 1554 1553 1553 1552 1552 1552 1551 1551 1550 1549 1547 1546 1544 1541 1538 1538 1539
1555 1555 1555 1556 1557 1557 1558 1559 1560 1560 1561 1561 1562 1562 1563 1564 1564 1564 1564 1563 1563 1562 1561 1559 1558 1557 1555 1554 1554 1553 1553 1553 1552 1552 1551 1550 1548 1547 1544 1541 1538 1537 1538
1555 1556 1556 1557 1557 1558 1559 1560 1561 1561 1561 1562 1562 1563 1563 1564 1564 1566 1565 1565 1564 1564 1563 1561 1560 1559 1557 1556 1555 1555 1554 1554 1553 1553 1552 1550 1549 1547 1545 1543 1540 1539 1540
1556 1557 1557 1557 1558 1559 1560 1560 1561 1561 1562 1562 1563 1563 1563 1564 1564 1566 1567 1566 1566 1565 1564 1563 1562 1561 1560 1559 1558 1557 1556 1556 1555 1554 1553 1551 1550 1548 1546 1545 1543 1542 1542
1557 1557 1558 1558 1559 1559 1560 1560 1561 1562 1562 1562 1563 1563 1564 1564 1565 1565 1567 1568 1567 1567 1566 1565 1564 1563 1562 1561 1560 1559 1558 1557 1556 1555 1554 1552 1551 1550 1548 1546 1545 1545 1544
1557 1557 1558 1559 1559 1560 1560 1561 1561 1562 1562 1562 1563 1564 1564 1564 1565 1566 1566 1567 1567 1568 1567 1566 1566 1564 1563 1562 1561 1560 1559 1558 1557 1556 1555 1553 1552 1551 1549 1548 1547 1546 1545
1557 1557 1558 1559 1559 1560 1560 1561 1561 1562 1562 1563 1563 1564 1564 1565 1565 1566 1566 1567 1568 1569 1568 1568 1567 1566 1565 1564 1563 1562 1560 1559 1558 1557 1556 1554 1553 1552 1550 1549 1547 1546 1545
1556 1557 1558 1559 1559 1560 1560 1561 1561 1562 1562 1563 1563 1564 1564 1565 1566 1566 1567 1567 1568 1569 1569 1569 1568 1567 1566 1565 1564 1562 1561 1560 1559 1558 1557 1555 1554 1552 1551 1549 1548 1547 1545
1556 1557 1558 1558 1559 1560 1560 1561 1561 1562 1562 1563 1563 1564 1564 1565 1565 1566 1567 1567 1568 1568 1569 1569 1568 1568 1567 1565 1564 1563 1562 1561 1560 1559 1557 1556 1554 1553 1551 1550 1548 1547 1546
1556 1557 1558 1558 1559 1560 1560 1561 1561 1562 1563 1563 1563 1564 1564 1565 1565 1566 1566 1567 1567 1567 1568 1569 1568 1568 1567 1566 1565 1563 1562 1561 1560 1559 1558 1556 1555 1553 1552 1550 1549 1547 1546
1555 1556 1557 1558 1559 1560 1560 1561 1561 1562 1562 1563 1563 1564 1564 1564 1565 1565 1566 1566 1566 1567 1567 1568 1568 1567 1566 1566 1565 1564 1562 1561 1560 1559 1558 1556 1555 1553 1552 1550 1549 1547 1545
1554 1555 1557 1558 1558 1559 1560 1560 1561 1561 1562 1563 1563 1563 1563 1564 1564 1565 1565 1565 1566 1566 1567 1567 1567 1567 1566 1565 1564 1563 1562 1561 1560 1559 1558 1556 1555 1553 1552 1550 1548 1547 1545
1553 1554 1556 1557 1558 1558 1559 1560 1560 1561 1561 1562 1562 1562 1563 1563 1563 1564 1564 1565 1565 1565 1565 1566 1566 1566 1565 1565 1564 1563 1562 1561 1559 1558 1557 1556 1554 1553 1551 1550 1548 1546 1544
1551 1553 1554 1555 1557 1558 1558 1559 1560 1560 1561 1561 1562 1562 1562 1562 1563 1563 1563 1564 1564 1564 1564 1564 1564 1565 1564 1564 1563 1562 1561 1560 1558 1557 1556 1555 1553 1552 1550 1549 1547 1545 1543
1549 1551 1553 1554 1555 1556 1557 1558 1559 1559 1560 1560 1560 1561 1561 1562 1562 1562 1562 1562 1562 1562 1562 1562 1563 1563 1562 1562 1561 1560 1559 1558 1557 1556 1555 1553 1552 1550 1549 1547 1546 1544 1542
1548 1549 1551 1552 1553 1555 1556 1556 1557 1558 1558 1559 1559 1559 1560 1560 1561 1561 1561 1561 1561 1561 1561 1561 1561 1561 1561 1560 1560 1559 1558 1556 1555 1555 1553 1552 1550 1548 1547 1545 1544 1542 1540
1546 1547 1549 1551 1552 1553 1554 1555 1556 1557 1557 1558 1558 1558 1559 1559 1559 1559 1559 1560 1560 1560 1560 1560 1559 1559 1559 1558 1558 1557 1556 1555 1554 1553 1551 1549 1548 1546 1545 1543 1541 1540 1538
1544 1545 1547 1549 1550 1551 1552 1553 1554 1555 1555 1556 1556 1557 1557 1557 1557 1557 1557 1558 1558 1558 1558 1558 1558 1558 1558 1557 1556 1555 1554 1553 1552 1551 1549 1547 1545 1544 1542 1540 1539 1537 1535
1541 1543 1545 1546 1548 1549 1550 1551 1552 1553 1554 1554 1555 1555 1555 1555 1556 1556 1556 1556 1556 1556 1556 1556 1556 1556 1556 1555 1554 1553 1551 1550 1548 1547 1547 1545 1542 1540 1539 1537 1536 1534 1532
1539 1540 1542 1544 1545 1547 1548 1549 1550 1551 1551 1552 1552 1553 1553 1553 1554 1554 1554 1554 1553 1554 1554 1554 1554 1553 1553 1552 1551 1550 1549 1548 1546 1545 1544 1542 1540 1538 1535 1533 1532 1530 1528